This demonstration page uses our WeatherBlox Daily Observations layout. Learn more.

Left ArrowRight Arrow

Hourly Observations for January 9, 2017

Temp ( °F °C ) Dew Point ( °F °C ) Humidity (%) Winds ( mph kmh ) Pressure ( in mb ) Visibility ( mi km ) Precip ( " mm )
12:52 am 00:52 Clear 24 -4.4 14 -10 65 65 S 10 17 30.40 1029 10 16 0.00 0.00
1:52 am 01:52 Clear 22 -5.6 14 -10 71 71 SSE 9 15 30.38 1029 10 16 0.00 0.00
2:52 am 02:52 Clear 23 -5 14 -10 68 68 SSE 13 20 30.38 1029 10 16 0.00 0.00
3:52 am 03:52 Clear 23 -5 14 -10 68 68 S 12 19 30.36 1028 10 16 0.00 0.00
4:52 am 04:52 Clear 22 -5.6 14 -10 71 71 SSE 13 20 30.35 1028 10 16 0.00 0.00
5:52 am 05:52 Clear 23 -5 14 -10 68 68 SSE 14 22 30.34 1027 10 16 0.00 0.00
6:52 am 06:52 Clear 23 -5 14 -10 68 68 SSE 15 24 30.32 1027 10 16 0.00 0.00
7:52 am 07:52 Sunny 24 -4.4 14 -10 65 65 SSE 14 22 30.32 1027 10 16 0.00 0.00
8:52 am 08:52 Sunny 28 -2.2 15 -9.4 58 58 S 14 22 30.32 1027 10 16 0.00 0.00
9:52 am 09:52 Sunny 34 1.1 18 -7.8 52 52 S 15 24 30.31 1026 10 16 0.00 0.00
10:52 am 10:52 Sunny 39 3.9 21 -6.1 48 48 S 17 28 30.30 1026 10 16 0.00 0.00
11:52 am 11:52 Sunny 44 6.7 24 -4.4 45 45 S 17 28 30.23 1024 10 16 0.00 0.00
12:52 pm 12:52 Sunny 47 8.3 26 -3.3 44 44 SSE 22 35 30.15 1021 10 16 0.00 0.00
1:52 pm 13:52 Mostly Cloudy 48 8.9 32 0 54 54 S 21 33 30.10 1019 10 16 0.00 0.00
2:52 pm 14:52 Cloudy 48 8.9 36 2.2 63 63 S 22 35 30.06 1018 10 16 0.00 0.00
3:52 pm 15:52 Cloudy 48 8.9 37 2.8 66 66 S 22 35 30.04 1017 10 16 0.00 0.00
4:50 pm 16:50 Mostly Sunny 45 7 36 2 71 71 SSE 17 28 30.00 1016 10 16 0.00 0.00
4:52 pm 16:52 Mostly Sunny 45 7.2 35 1.7 68 68 S 18 30 30.00 1016 10 16 0.00 0.00
5:52 pm 17:52 Clear 43 6.1 35 1.7 74 74 SSE 22 35 29.97 1015 10 16 0.00 0.00
6:52 pm 18:52 Clear 42 5.6 35 1.7 76 76 S 20 31 29.96 1014 10 16 0.00 0.00
7:47 pm 19:47 Mostly Cloudy 43 6 36 2 76 76 S 18 30 29.97 1015 10 16 0.00 0.00
7:52 pm 19:52 Mostly Cloudy 42 5.6 35 1.7 76 76 S 18 30 29.96 1015 10 16 0.00 0.00
8:52 pm 20:52 Cloudy 43 6.1 36 2.2 76 76 S 18 30 29.92 1013 10 16 0.00 0.00
9:52 pm 21:52 Cloudy 44 6.7 37 2.8 76 76 S 21 33 29.88 1012 10 16 0.00 0.00
10:52 pm 22:52 Cloudy 45 7.2 38 3.3 77 77 SSE 21 33 29.83 1010 10 16 0.00 0.00
11:52 pm 23:52 Cloudy 46 7.8 40 4.4 79 79 S 17 28 29.80 1009 10 16 0.00 0.00

Powered by AerisWeather